User: anonymous   Login
Location: Goheenville
(40.9070°N, 79.3720°W)
Time: 07:19:18
(UTC-05:00)
Language:

NOAA 11 - Orbit

View from above orbital plane
View from above orbital plane
View from above satellite
View from above satellite

Ground track
Ground track

The orbit data is extracted from the following two-line orbital elements,

1 19531U 88089A   15028.28247706  .00000005  00000-0  24551-4 0  1284
2 19531 098.6596 105.9088 0011202 020.2176 339.9440 14.15128035359570
Epoch (UTC): 28 January 2015 06:46:46
Eccentricity: 0.0011202
inclination: 98.6596°
perigee height: 834 km
apogee height: 850 km
right ascension of ascending node: 105.9088°
argument of perigee: 20.2176°
revolutions per day: 14.15128035
mean anomaly at epoch: 339.9440°
orbit number at epoch: 35957

The dashed part of the orbit path shows where the satellite is in the earth's shadow,  

DLR